Location: Nasgenstadt
(48.2786°N, 9.7553°E)
Time: 16:58:19
(UTC+01:00)

ISS - Pass Details

Date: 23 March 2017
Orbit: 399 x 409 km, 51.6° (Epoch: 25 March)

Event Time Altitude Azimuth Distance (km) Brightness Sun altitude
Exits shadow 04:30:08 20° 169° (S) 996 -2.0 -18.2°
Drops below altitude 10° 04:31:33 10° 152° (SSE) 1,468 -1.0 -18.0°
Sets 04:33:46 0° 142° (SE) 2,326 0.2 -17.6°
